[[{"header":{"parameterUnit":"m.s-1","parameterCategory":1,"la1":30.2991,"la2":30.254,"lo1":-89.0895,"lo2":-89.0444,"dy":0.0017,"dx":0.0017,"nx":28,"ny":28,"refTime":"2025-01-24T09:00:00:Z","depth":0,"parameterNumber":2,"parameterNumberName":"U-component_of_WINDS"},"data":[0,0,0,0,0,0,0,0,0,0,0,0,0,0,0,0,0,0,0,0,0,0,0,0,0,0,0,0,0,0,0,0,0,0,0,0,0,0,0,0,0,0,0,0,0,0,0,0,0,0,0,0,0,0,0,0,0,0,-3.8633,-3.8634,0,-3.8677,-3.8678,-3.8678,-3.86,-3.8597,-3.8594,-3.8592,-3.8634,-3.8637,-3.8641,0,0,0,0,0,0,0,0,0,0,0,0,0,-3.8476,-3.8479,-3.8633,-3.8634,-3.8634,-3.8677,-3.8678,-3.8678,-3.86,-3.8597,-3.8594,-3.8591,-3.8633,-3.8637,-3.8641,0,0,0,0,0,0,0,0,0,0,0,0,0,-3.8535,-3.8481,-3.8633,-3.86,-3.8598,-3.8677,-3.8678,-3.8679,-3.8601,-3.8597,-3.8593,-3.8589,-3.8631,-3.8637,-3.8642,-3.8754,0,0,-3.8658,-3.8661,0,0,0,0,0,0,0,0,-3.8532,-3.8541,-3.8605,-3.8603,-3.86,-3.8629,-3.8638,-3.8704,-3.8602,-3.86,-3.8592,-3.8587,-3.8635,-3.864,-3.8657,-3.8756,-3.8758,-3.8659,-3.8662,-3.8664,-3.8666,0,0,0,0,0,0,0,-3.8528,-3.8538,-3.865,-3.8606,-3.8603,-3.8582,-3.8586,-3.865,-3.8639,-3.8599,-3.8594,-3.86,-3.8633,-3.8652,-3.8657,-3.8758,-3.8659,-3.8663,-3.8667,-3.8669,-3.8948,-3.8952,0,0,0,0,0,0,-3.8528,-3.8535,-3.8649,-3.8652,-3.8555,-3.8588,-3.8592,-3.8624,-3.8638,-3.8636,-3.8604,-3.8596,-3.8645,-3.8651,-3.8658,-3.8788,-3.8664,-3.8669,-3.8672,-3.8944,-3.8949,-3.8954,0,0,0,0,0,0,-3.8525,-3.8539,-3.8647,-3.8592,-3.8604,-3.8595,-3.8631,-3.8627,-3.8645,-3.8641,-3.8638,-3.8625,-3.8642,-3.8651,-3.873,-3.8788,-3.8672,-3.8677,-3.8939,-3.8946,-3.8951,-3.9049,0,0,0,0,0,0,-3.8521,-3.8538,-3.8582,-3.8594,-3.8608,-3.872,-3.8634,-3.863,-3.8655,-3.8646,-3.8661,-3.8659,-3.8639,-3.8723,-3.8736,-3.8793,-3.8681,-3.8934,-3.8942,-3.8949,-3.904,-3.9058,-3.9073,0,0,0,0,0,-3.8516,-3.8608,-3.8585,-3.8599,-3.8662,-3.8723,-3.8731,-3.8707,-3.866,-3.8703,-3.87,-3.8659,-3.8781,-3.8732,-3.8745,-3.8806,-3.893,-3.894,-3.8949,-3.9033,-3.9054,-3.9072,0,0,0,0,0,0,-3.8602,-3.8609,-3.8583,-3.8682,-3.8703,-3.871,-3.8763,-3.8731,-3.8765,-3.8755,-3.8723,-3.8727,-3.8812,-3.8817,-3.8763,-3.8913,-3.8847,-3.886,-3.8906,-3.8926,-3.8942,-3.8937,-3.8685,0,0,0,0,0,-3.8633,-3.8684,-3.8686,-3.8773,-3.8785,-3.8773,-3.8798,-3.8779,-3.8798,-3.8806,-3.8809,-3.8829,-3.8871,-3.89,-3.8939,-3.9042,-3.9042,-3.909,-3.9106,-3.912,-3.913,-3.9181,-3.9201,-3.8985,-3.8985,-3.8985,0,0,-3.8696,-3.8706,-3.874,-3.8791,-3.8804,-3.8855,-3.878,-3.8838,-3.8875,-3.8815,-3.8889,-3.8892,-3.8912,-3.9003,-3.9043,-3.901,-3.919,-3.9132,-3.9142,-3.9145,-3.9193,-3.9213,-3.9232,-3.8991,-3.899,-3.8989,0,0,-3.8837,-3.8852,-3.8924,-3.894,-3.8961,-3.8953,-3.897,-3.8982,-3.8982,-3.9057,-3.9012,-3.9055,-3.913,-3.9144,-3.9162,-3.9308,-3.927,-3.9322,-3.9405,-3.9455,-3.9472,-3.9487,-3.9536,-3.9554,-3.9333,-3.9333,-3.9334,0,-3.8913,-3.8989,-3.8965,-3.9025,-3.9047,-3.8997,-3.9068,-3.9084,-3.9118,-3.9133,-3.9096,-3.9187,-3.9197,-3.9289,-3.9325,-3.9342,-3.9359,-3.9318,-3.9472,-3.9487,-3.95,-3.9546,-3.9565,-3.9339,-3.9339,-3.9338,-3.9337,0,-3.9079,-3.9133,-3.9189,-3.9222,-3.9251,-3.9317,-3.9301,-3.9333,-3.9311,-3.9306,-3.9381,-3.9391,-3.943,-3.9451,-3.9431,-3.954,-3.9518,-3.9478,-3.9409,-3.9527,-3.9569,-3.9587,-3.9348,-3.9345,-3.9344,-3.9342,0,0,-3.9274,-3.9293,-3.9314,-3.9327,-3.9348,-3.9388,-3.9451,-3.9489,-3.9516,-3.9541,-3.9591,-3.9655,-3.9617,-3.9637,-3.9617,-3.9662,-3.9773,-3.9615,-3.9615,-3.9641,-3.989,-3.9918,-3.9939,-3.975,-3.9753,-3.9756,-3.9887,0,-3.9411,-3.9519,-3.9499,-3.9604,-3.9651,-3.9604,-3.9658,-3.9676,-3.9673,-3.9711,-3.9707,-3.9752,-3.97,-3.9711,-3.9754,-3.9751,-3.9822,-3.9742,-3.9792,-3.9794,-3.9785,-3.9961,-3.9991,-4.0114,-3.9904,-3.9907,-3.9909,0,-3.9585,-3.9616,-3.9726,-3.9737,-3.9756,-3.9805,-3.9837,-3.9876,-3.9894,-3.9889,-3.9911,-3.9883,-3.9943,-3.9877,-3.9958,-3.9904,-3.9924,-3.9925,-3.9929,-3.993,-3.9856,-3.9963,-4.0153,-4.017,-3.9935,-3.9933,-3.9931,0,-3.9711,-3.9781,-3.9854,-3.9868,-3.9884,-3.9919,-3.9927,-3.9941,-3.9965,-3.9994,-4.0008,-4.0044,-4.0063,-4.009,-4.0071,-4.0026,-4.0154,-4.0088,-4.0148,-4.0148,-4.0174,-4.0172,-4.0366,-4.0194,-4.0194,-4.0194,-4.0193,0,-3.9863,-3.9931,-3.9911,-3.9956,-4.003,-4.0006,-4.0079,-4.0082,-4.0095,-4.0138,-4.0101,-4.0141,-4.0116,-4.0155,-4.0141,-4.0208,-4.0218,-4.0212,-4.0207,-4.0213,-4.0214,-4.0223,-4.0212,-4.0199,-4.0197,-4.0196,-4.0196,0,-4.0015,-4.0004,-4.0081,-4.009,-4.0093,-4.0147,-4.0154,-4.0194,-4.0189,-4.0244,-4.0255,-4.0246,-4.029,-4.0275,-4.0321,-4.0312,-4.0396,-4.0382,-4.0389,-4.0384,-4.0444,-4.0437,-4.0648,-4.0673,-4.0489,-4.0491,-4.0492,0,-4.0111,-4.0162,-4.0176,-4.0202,-4.0213,-4.0257,-4.0281,-4.0259,-4.0285,-4.031,-4.0347,-4.0387,-4.0418,-4.0489,-4.0485,-4.052,-4.0504,-4.0576,-4.0509,-4.0513,-4.05,-4.0495,-4.0499,-4.0588,-4.059,-4.0592,-4.0593,0,-4.0281,-4.0273,-4.031,-4.0344,-4.0374,-4.0401,-4.0423,-4.0447,-4.0426,-4.0458,-4.0502,-4.0526,-4.0573,-4.0612,-4.0643,-4.065,-4.0617,-4.0615,-4.063,-4.0634,-4.0635,-4.0631,-4.0421,-4.0609,-4.0607,-4.0606,-4.0605,-4.0605,-4.0405,-4.0446,-4.0462,-4.0504,-4.0519,-4.0541,-4.0578,-4.0578,-4.0615,-4.0651,-4.0637,-4.0687,-4.0702,-4.074,-4.0752,-4.0789,-4.0761,-4.0784,-4.0789,-4.0794,-4.0799,-4.0633,-4.0795,-4.0795,-4.0794,-4.0794,-4.0794,0,-4.0569,-4.0577,-4.0616,-4.0648,-4.068,-4.0649,-4.0672,-4.0701,-4.0745,-4.0763,-4.0794,-4.0843,-4.0881,-4.0881,-4.0915,-4.0945,-4.0931,-4.0955,-4.095,-4.0951,-4.0825,-4.0806,-4.0965,-4.0965,-4.0965,-4.0965,-4.0965,-4.0965,-4.0658,-4.0726,-4.072,-4.0795,-4.0802,-4.0851,-4.0866,-4.0885,-4.0899,-4.0955,-4.0987,-4.0987,-4.0997,-4.1032,-4.1064,-4.1063,-4.1076,-4.1104,-4.1097,-4.0978,-4.0961,-4.0944,-4.0926,-4.1108,-4.1109,-4.122,-4.1221,-4.1222]},{"header":{"parameterUnit":"m.s-1","parameterCategory":1,"la1":30.2991,"la2":30.254,"lo1":-89.0895,"lo2":-89.0444,"dy":0.0017,"dx":0.0017,"nx":28,"ny":28,"refTime":"2025-01-24T09:00:00:Z","depth":0,"parameterNumber":3,"parameterNumberName":"V-component_of_WINDS"},"data":[0,0,0,0,0,0,0,0,0,0,0,0,0,0,0,0,0,0,0,0,0,0,0,0,0,0,0,0,0,0,0,0,0,0,0,0,0,0,0,0,0,0,0,0,0,0,0,0,0,0,0,0,0,0,0,0,0,0,0.6503,0.6502,0,0.6452,0.6452,0.6451,0.635,0.6348,0.6346,0.6345,0.6293,0.6293,0.6294,0,0,0,0,0,0,0,0,0,0,0,0,0,0.6514,0.6514,0.6503,0.6502,0.6501,0.6452,0.6452,0.6451,0.6351,0.6348,0.6346,0.6344,0.6293,0.6293,0.6294,0,0,0,0,0,0,0,0,0,0,0,0,0,0.6491,0.6514,0.6503,0.6446,0.644,0.6452,0.6452,0.6451,0.6351,0.6348,0.6345,0.6343,0.6293,0.6293,0.6294,0.6358,0,0,0.6296,0.6296,0,0,0,0,0,0,0,0,0.6492,0.649,0.6455,0.6449,0.6443,0.6404,0.6436,0.642,0.6352,0.6385,0.6345,0.6341,0.6332,0.633,0.6327,0.6356,0.6353,0.6296,0.6297,0.6297,0.6297,0,0,0,0,0,0,0,0.6494,0.6492,0.6483,0.6454,0.6447,0.6423,0.6416,0.6433,0.6376,0.6382,0.6374,0.637,0.6329,0.6326,0.6325,0.6353,0.6296,0.6297,0.6297,0.6297,0.6434,0.6437,0,0,0,0,0,0,0.6504,0.6494,0.6484,0.6481,0.6461,0.6425,0.6418,0.642,0.6376,0.6366,0.6372,0.6365,0.6327,0.6324,0.6323,0.6396,0.6297,0.6298,0.6298,0.6431,0.6435,0.6438,0,0,0,0,0,0,0.6504,0.6504,0.6486,0.6486,0.6481,0.6428,0.6431,0.6421,0.6418,0.6368,0.6358,0.638,0.6324,0.6322,0.635,0.6393,0.6298,0.6298,0.6427,0.6432,0.6436,0.6543,0,0,0,0,0,0,0.6505,0.6505,0.6528,0.6487,0.6482,0.6515,0.6434,0.6422,0.6419,0.641,0.6373,0.6364,0.6322,0.635,0.6351,0.6392,0.6299,0.6423,0.6429,0.6435,0.6536,0.6551,0.6564,0,0,0,0,0,0.6506,0.656,0.653,0.6529,0.651,0.6517,0.6515,0.6465,0.6423,0.6447,0.6415,0.6365,0.6388,0.6354,0.6354,0.6396,0.642,0.6427,0.6434,0.6529,0.6548,0.6564,0,0,0,0,0,0,0.6606,0.6553,0.6519,0.6561,0.6545,0.65,0.6528,0.6486,0.6481,0.6472,0.641,0.6402,0.644,0.6421,0.6383,0.6457,0.6396,0.6404,0.6468,0.6486,0.65,0.6504,0.63,0,0,0,0,0,0.6634,0.6644,0.6597,0.6638,0.6632,0.6582,0.6583,0.6547,0.6527,0.6519,0.649,0.6473,0.6476,0.648,0.648,0.6533,0.6524,0.6562,0.6576,0.6588,0.6596,0.6624,0.6641,0.6462,0.6462,0.6461,0,0,0.6689,0.6662,0.6672,0.6658,0.6641,0.6654,0.6577,0.6593,0.6602,0.6522,0.6548,0.6526,0.6503,0.6545,0.6561,0.653,0.6644,0.6597,0.6607,0.6608,0.6633,0.665,0.6666,0.6467,0.6466,0.6465,0,0,0.6798,0.6778,0.6811,0.6796,0.6772,0.6738,0.6747,0.6709,0.6692,0.6717,0.6658,0.6668,0.6675,0.6662,0.6656,0.6763,0.6717,0.6765,0.6839,0.6868,0.6882,0.6894,0.6934,0.6949,0.6772,0.6772,0.6772,0,0.6871,0.6888,0.6834,0.6854,0.6851,0.6779,0.6814,0.6801,0.6779,0.6778,0.6743,0.6752,0.6731,0.677,0.6796,0.6793,0.6802,0.6768,0.6884,0.6896,0.6907,0.6944,0.6959,0.6778,0.6778,0.6777,0.6776,0,0.6979,0.6992,0.7022,0.7002,0.7002,0.703,0.6981,0.6987,0.6951,0.6922,0.695,0.6923,0.6917,0.6924,0.6888,0.6958,0.6939,0.6895,0.6833,0.6931,0.6965,0.6978,0.6787,0.6785,0.6783,0.6782,0,0,0.7149,0.7101,0.7113,0.7104,0.7073,0.7082,0.7107,0.7102,0.7109,0.7096,0.7117,0.7125,0.7085,0.7079,0.7041,0.7066,0.7155,0.7019,0.7018,0.7046,0.7233,0.7267,0.7284,0.7125,0.7127,0.7129,0.7235,0,0.7251,0.7291,0.7244,0.7294,0.7306,0.724,0.7262,0.7246,0.722,0.7227,0.7198,0.7206,0.7151,0.7147,0.7169,0.714,0.7192,0.7131,0.7144,0.7145,0.7153,0.7301,0.7337,0.7438,0.7248,0.725,0.7252,0,0.7375,0.737,0.7422,0.7389,0.7392,0.7413,0.7406,0.7413,0.7395,0.7374,0.7369,0.7324,0.7347,0.7287,0.7319,0.7279,0.7282,0.7269,0.7271,0.7271,0.7205,0.7306,0.7469,0.7485,0.7272,0.727,0.7269,0,0.7496,0.7501,0.7533,0.7527,0.749,0.7507,0.7492,0.747,0.7471,0.7465,0.7465,0.7462,0.7461,0.746,0.7417,0.7376,0.7455,0.7391,0.744,0.7441,0.7459,0.7459,0.7626,0.746,0.746,0.746,0.7459,0,0.7616,0.765,0.7587,0.7607,0.7644,0.7591,0.7629,0.7608,0.7589,0.7605,0.7547,0.7562,0.7504,0.7514,0.748,0.7513,0.7512,0.7497,0.7488,0.7503,0.7505,0.7504,0.7496,0.7464,0.7463,0.7462,0.7461,0,0.7756,0.7715,0.7746,0.7709,0.77,0.773,0.7698,0.7716,0.7687,0.7707,0.7709,0.7663,0.7672,0.7629,0.763,0.7607,0.7658,0.7636,0.7664,0.7658,0.771,0.7706,0.7883,0.7904,0.7724,0.7726,0.7727,0,0.7836,0.7861,0.7827,0.7833,0.7822,0.7833,0.7834,0.7783,0.7786,0.7768,0.7789,0.7793,0.7793,0.7811,0.7778,0.7779,0.7758,0.782,0.7757,0.7773,0.776,0.776,0.7763,0.7833,0.7835,0.7837,0.7838,0,0.7982,0.7961,0.7964,0.7962,0.7965,0.7961,0.7952,0.7961,0.7906,0.7914,0.7922,0.7923,0.7925,0.793,0.7925,0.791,0.7866,0.7858,0.787,0.7886,0.7902,0.7896,0.7701,0.7855,0.7853,0.7852,0.7851,0.785,0.8095,0.8115,0.8095,0.8102,0.809,0.8085,0.81,0.8074,0.808,0.8078,0.8047,0.8063,0.8045,0.8033,0.8024,0.8035,0.8006,0.8022,0.8027,0.8032,0.8042,0.79,0.8034,0.8033,0.8033,0.8032,0.8032,0,0.8239,0.8223,0.823,0.8221,0.8227,0.8185,0.8174,0.8182,0.8196,0.8184,0.8186,0.8197,0.8203,0.8172,0.8174,0.8189,0.8169,0.8192,0.819,0.8188,0.8067,0.8058,0.8208,0.8208,0.8208,0.8208,0.8208,0.8208,0.8314,0.8347,0.8324,0.8351,0.8335,0.835,0.8348,0.8343,0.8332,0.8348,0.8352,0.8332,0.8313,0.8313,0.8317,0.8308,0.8312,0.8342,0.8326,0.8213,0.8196,0.818,0.8171,0.8343,0.8343,0.8446,0.8447,0.8448]}]]